Showing default

COSMOS 2579, 61730

Orbit data source: Space-Track

COSMOS 2579, 61730 is a payload satellite owned by VVKO VKS (CIS) in SSO that was launched on Thu, 31 Oct 2024 UTC via a SOYUZ-2-1A launch vehicle from the Plesetsk Missile And Space Complex (PKMTR). Payload-class satellites include a variety of spacecraft equipped with specific instruments for various scientific and technological missions. These include communications satellites like Starlink; space stations such as the ISS; scientific satellites like the Hubble; Earth observation satellites from companies like Planet Labs, Umbra, and HawkEye 360; GPS; miniature CubeSats for education and research; and military/defense satellites.

Loading next visibility...
Identifier
61730, 2024-197A
Orbit
SSO
Last TLE update
6 hours ago
Origin
Manufacturer
Arsenal
Mission
Operational Defense Imaging
Bus & Motor
BARS, AOCS
Mass
3,700 kg wet, ~3,500 kg dry
Launch date (UTC)
2024-10-31 (8 months ago)
Launch vehicle
SOYUZ-2-1A
Launch site
Plesetsk Missile And Space Complex (PKMTR)
Object type
Payload
Rocket body
Debris
Shape & HBR
Cyl + 2 Pan, 10 m
Radar Cross Section
20.881 m², Large (>1 m²)

Expand to show TLE details & history

TLE from 6 hours ago
0 COSMOS 2579
1 61730U 24197A   25187.59803960  .00003216  00000-0  13778-3 0  9994
2 61730  97.5549 103.6225 0003998  96.8138 263.3553 15.23505782 37815
Epoch: 2025-07-06T14:21Z
TLE epoch observation values (Epoch: 2025-07-06T14:21:10.621Z)
Latitude
-0.00008°
Longitude
-36.49118°
Altitude
498.686 km
Speed
7.615 km/s
True Right ascension
06h 54m 29s
True Declination
0° 00' 00"
Sunlit
Object was in daylight at epoch
Visualization orbit readout
Latitude
-53.09416°
Longitude
-26.12098°
Altitude
518.298 km
Speed
7.602 km/s
Apparent Right ascension
23h 30m 29s
Apparent Declination
-82° 42' 43"
Sunlit
Object is in daylight
Visualization observer readout
Local Sidereal Time
08:25:11
Azimuth
187.419° SSW
Elevation
-44.722°
Doppler factor
1
Orbital elements
Apogee altitude
494.99 km
Perigee altitude
489.497 km
Semi-major axis
6,870.381 km
Eccentricity
0.0004
Inclination
97.5549°
RAAN
103.6225°
Arg. of periapsis
96.8138°
True anomaly
Unknown
Mean anomaly
263.3553°
Eccentric anomaly
Unknown
Mean motion
3.81129 °/min
Orbital period
94.46 mins
BSTAR
0.00013778
Loading maneuver chart data...
Loading SW <> Apogee altitude chart data...
Loading historical data...
Loading historical data...
Loading historical data...
Loading historical data...
Loading historical data...
Loading historical data...
Loading historical data...
Other satellites on launch #197 in the year 2024 (2024-10-31 UTC)

COSMOS 2579 Visibility forecast

Observer location: undefined°, undefined°

Span
Click to sort rows by Start time (UTC) header in descending order
Start Az.
Max El. time (UTC)
Max El. Az.
Max El.
End time (UTC)
End Az.
5 mins2025-07-07 06:41:23.783Z42.309° NE2025-07-07 06:44:23.783Z111.168° ESE24.124°2025-07-07 06:46:23.783Z150.636° SSE
4 mins2025-07-07 18:52:23.783Z207.844° SW2025-07-07 18:54:23.783Z282.567° WNW32.295°2025-07-07 18:56:23.783Z326.242° NNW
|